VKG119 LEPA-EKCH

Flight info

Callsign VKG119
Flight time 2h 27m
Altitude 34000
Route MEROS DCT LAPIT DCT CHELY DCT LUMAS DCT MAXIR DCT LUSOL DCT BODRU DCT OKTET DCT IRMAR DCT KINES DCT VANAS DCT MOBLO DCT UBIMA DCT SOSAL DCT KORED DCT BERSU DCT DITON DCT LOKTA DCT TEDGO DCT HAREM DCT LOHRE DCT BERXO DCT MAKEL N851 GESKA Z711 MONAK
Aircraft A321/M-SDE2E3FGHIJ1RWXYZ/LB2

Departure

Time 2026-05-04 15:58
Airport Palma de Mallorca Airport (LEPA)

Arrival

Time 2026-05-04 18:26
Airport Copenhagen Kastrup Airport (EKCH)
Time Latitude Longitude Altitude Speed Heading
2026-05-04 15:16 39.55023 2.73488 38 ft 0 kts 165°
2026-05-04 15:48 39.55042 2.73480 38 ft 4 kts 149°
2026-05-04 15:48 39.55059 2.73458 37 ft 4 kts 100°
2026-05-04 15:48 39.55058 2.73437 38 ft 0 kts 58°
2026-05-04 15:51 39.55060 2.73441 38 ft 3 kts 58°
2026-05-04 15:51 39.55088 2.73501 38 ft 12 kts 58°
2026-05-04 15:52 39.55147 2.73622 38 ft 19 kts 57°
2026-05-04 15:52 39.55170 2.73753 38 ft 11 kts 98°
2026-05-04 15:52 39.55231 2.73806 38 ft 17 kts 334°
2026-05-04 15:52 39.55337 2.73724 37 ft 16 kts 328°
2026-05-04 15:53 39.55428 2.73649 38 ft 15 kts 327°
2026-05-04 15:53 39.55510 2.73582 38 ft 13 kts 329°
2026-05-04 15:53 39.55586 2.73525 38 ft 12 kts 333°
2026-05-04 15:53 39.55656 2.73518 38 ft 10 kts 32°
2026-05-04 15:54 39.55694 2.73582 38 ft 9 kts 58°
2026-05-04 15:54 39.55740 2.73678 38 ft 18 kts 58°
2026-05-04 15:54 39.55807 2.73822 38 ft 18 kts 59°
2026-05-04 15:54 39.55868 2.73951 37 ft 16 kts 58°
2026-05-04 15:55 39.55922 2.74066 38 ft 14 kts 58°
2026-05-04 15:55 39.55970 2.74167 38 ft 12 kts 58°
2026-05-04 15:55 39.56011 2.74254 37 ft 10 kts 58°
2026-05-04 15:55 39.56042 2.74318 37 ft 7 kts 58°
2026-05-04 15:56 39.56062 2.74362 38 ft 4 kts 58°
2026-05-04 15:56 39.56076 2.74390 38 ft 3 kts 57°
2026-05-04 15:56 39.56091 2.74418 38 ft 7 kts 52°
2026-05-04 15:56 39.56133 2.74450 38 ft 9 kts 12°
2026-05-04 15:57 39.56229 2.74390 38 ft 11 kts 319°
2026-05-04 15:57 39.56245 2.74305 38 ft 8 kts 252°
2026-05-04 15:57 39.56236 2.74283 38 ft 0 kts 240°
2026-05-04 15:57 39.56200 2.74209 38 ft 39 kts 237°
2026-05-04 15:58 39.55904 2.73594 39 ft 118 kts 238°
2026-05-04 15:58 39.55370 2.72454 66 ft 173 kts 239°
2026-05-04 15:58 39.54712 2.71043 651 ft 190 kts 236°
2026-05-04 15:58 39.53998 2.69533 1226 ft 210 kts 236°
2026-05-04 15:59 39.53213 2.67877 2067 ft 219 kts 238°
2026-05-04 15:59 39.52415 2.66192 3082 ft 221 kts 238°
2026-05-04 15:59 39.51601 2.64477 4000 ft 226 kts 238°
2026-05-04 15:59 39.50621 2.62869 4930 ft 231 kts 220°
2026-05-04 16:00 39.49163 2.61985 5916 ft 237 kts 192°
2026-05-04 16:00 39.47502 2.62160 6896 ft 249 kts 163°
2026-05-04 16:00 39.46072 2.63503 7747 ft 269 kts 133°
2026-05-04 16:00 39.45292 2.65843 8283 ft 299 kts 103°
2026-05-04 16:01 39.45040 2.68553 9120 ft 308 kts 97°
2026-05-04 16:01 39.44949 2.71360 9992 ft 315 kts 94°
2026-05-04 16:01 39.44911 2.74277 10458 ft 336 kts 94°
2026-05-04 16:01 39.44866 2.77392 10939 ft 353 kts 94°
2026-05-04 16:02 39.44797 2.80590 11491 ft 358 kts 95°
2026-05-04 16:02 39.44696 2.83825 12084 ft 361 kts 95°
2026-05-04 16:02 39.44414 2.90369 13314 ft 367 kts 96°
2026-05-04 16:03 39.44253 2.93677 13911 ft 370 kts 96°
2026-05-04 16:03 39.44092 2.97015 14433 ft 374 kts 96°
2026-05-04 16:03 39.43933 3.00387 14933 ft 378 kts 96°
2026-05-04 16:03 39.43774 3.03794 15422 ft 381 kts 96°
2026-05-04 16:04 39.43614 3.07233 15907 ft 386 kts 96°
2026-05-04 16:04 39.43284 3.14234 16893 ft 394 kts 96°
2026-05-04 16:04 39.43112 3.17790 17385 ft 398 kts 96°
2026-05-04 16:05 39.42992 3.21384 17869 ft 404 kts 90°
2026-05-04 16:05 39.43328 3.25016 18316 ft 409 kts 77°
2026-05-04 16:05 39.45563 3.31819 19112 ft 417 kts 58°
2026-05-04 16:06 39.47063 3.35053 19509 ft 421 kts 58°
2026-05-04 16:06 39.51102 3.43813 20559 ft 431 kts 58°
2026-05-04 16:07 39.53155 3.48304 21090 ft 436 kts 58°
2026-05-04 16:07 39.57306 3.57391 22150 ft 445 kts 59°
2026-05-04 16:08 39.58887 3.60847 22518 ft 448 kts 59°
2026-05-04 16:08 39.64241 3.72580 23667 ft 460 kts 59°
2026-05-04 16:09 39.67509 3.79773 24287 ft 465 kts 59°
2026-05-04 16:09 39.70267 3.85870 24817 ft 469 kts 59°
2026-05-04 16:10 39.73583 3.93201 25452 ft 473 kts 60°
2026-05-04 16:11 39.78570 4.04279 26411 ft 478 kts 60°
2026-05-04 16:11 39.80250 4.08020 26706 ft 481 kts 60°
2026-05-04 16:12 39.86386 4.18344 27543 ft 486 kts 36°
2026-05-04 16:12 39.95445 4.23755 28397 ft 476 kts
2026-05-04 16:13 40.02004 4.25283 28817 ft 482 kts
2026-05-04 16:13 40.08645 4.26846 29264 ft 487 kts
2026-05-04 16:14 40.15353 4.28445 29733 ft 492 kts
2026-05-04 16:14 40.22127 4.30044 30130 ft 498 kts
2026-05-04 16:15 40.32405 4.32458 30786 ft 502 kts
2026-05-04 16:16 40.39296 4.34106 31240 ft 504 kts
2026-05-04 16:16 40.49635 4.36575 32129 ft 502 kts
2026-05-04 16:17 40.56496 4.38207 32709 ft 500 kts
2026-05-04 16:18 40.66750 4.40646 33564 ft 498 kts
2026-05-04 16:18 40.70163 4.41464 33833 ft 498 kts
2026-05-04 16:19 40.80508 4.43950 33935 ft 512 kts
2026-05-04 16:19 40.87570 4.45659 33930 ft 518 kts
2026-05-04 16:20 41.05322 4.49966 33955 ft 519 kts
2026-05-04 16:22 41.23000 4.54285 33928 ft 517 kts
2026-05-04 16:23 41.44225 4.59484 33915 ft 517 kts
2026-05-04 16:25 41.65422 4.64711 34390 ft 515 kts
2026-05-04 16:26 41.78907 4.71119 35232 ft 525 kts 28°
2026-05-04 16:26 41.88289 4.78697 35799 ft 524 kts 27°
2026-05-04 16:27 41.94530 4.83725 35937 ft 522 kts 27°
2026-05-04 16:28 42.03854 4.91248 35939 ft 521 kts 27°
2026-05-04 16:29 42.25453 5.08831 35954 ft 518 kts 28°
2026-05-04 16:31 42.40871 5.21438 35976 ft 518 kts 28°
2026-05-04 16:32 42.59325 5.36657 35975 ft 518 kts 28°
2026-05-04 16:33 42.71627 5.46855 35982 ft 518 kts 27°
2026-05-04 16:34 42.80849 5.54532 35988 ft 518 kts 28°
2026-05-04 16:35 42.99258 5.69946 36023 ft 516 kts 28°
2026-05-04 16:36 43.08433 5.77651 36033 ft 515 kts 28°
2026-05-04 16:37 43.17578 5.85383 36043 ft 515 kts 28°
2026-05-04 16:38 43.29748 5.95711 36062 ft 514 kts 28°
2026-05-04 16:39 43.39043 6.02841 36047 ft 504 kts 14°
2026-05-04 16:39 43.45787 6.04684 36044 ft 490 kts 358°
2026-05-04 16:40 43.59383 6.06041 36048 ft 489 kts 358°
2026-05-04 16:41 43.76297 6.08112 36051 ft 496 kts
2026-05-04 16:42 43.85908 6.13790 36034 ft 504 kts 22°
2026-05-04 16:43 43.92203 6.18086 36056 ft 504 kts 22°
2026-05-04 16:43 44.01630 6.24546 36051 ft 504 kts 22°
2026-05-04 16:45 44.20464 6.37495 36061 ft 503 kts 22°
2026-05-04 16:46 44.36114 6.48330 36058 ft 501 kts 22°
2026-05-04 16:47 44.48595 6.57002 36109 ft 500 kts 22°
2026-05-04 16:48 44.60998 6.65670 36116 ft 499 kts 22°
2026-05-04 16:49 44.73410 6.74389 36127 ft 498 kts 23°
2026-05-04 16:50 44.79782 6.77962 36136 ft 489 kts
2026-05-04 16:50 44.86458 6.79017 36125 ft 485 kts
2026-05-04 16:51 44.92714 6.82806 36127 ft 494 kts 24°
2026-05-04 16:51 44.95776 6.85038 36126 ft 495 kts 23°
2026-05-04 16:52 45.08152 6.93553 36126 ft 494 kts 22°
2026-05-04 16:53 45.17454 6.99850 36144 ft 494 kts 22°
2026-05-04 16:54 45.29764 7.08346 36143 ft 492 kts 22°
2026-05-04 16:55 45.48236 7.21124 36160 ft 492 kts 22°
2026-05-04 16:56 45.62563 7.31118 36152 ft 491 kts 23°
2026-05-04 16:57 45.71771 7.37553 36154 ft 491 kts 23°
2026-05-04 16:58 45.84049 7.46175 36157 ft 491 kts 23°
2026-05-04 17:00 46.02432 7.59192 36109 ft 491 kts 24°
2026-05-04 17:01 46.17731 7.70056 36117 ft 490 kts 24°
2026-05-04 17:02 46.29944 7.78820 36098 ft 489 kts 24°
2026-05-04 17:03 46.39051 7.85370 36077 ft 490 kts 24°
2026-05-04 17:03 46.48200 7.91975 36051 ft 490 kts 24°
2026-05-04 17:04 46.60402 8.00817 36030 ft 490 kts 24°
2026-05-04 17:05 46.72627 8.09734 36028 ft 489 kts 24°
2026-05-04 17:06 46.81719 8.16386 36025 ft 490 kts 25°
2026-05-04 17:07 46.89852 8.22367 36013 ft 489 kts 25°
2026-05-04 17:07 46.96900 8.27571 36017 ft 488 kts 25°
2026-05-04 17:08 47.05981 8.34275 36044 ft 487 kts 25°
2026-05-04 17:09 47.12031 8.38761 36015 ft 487 kts 25°
2026-05-04 17:09 47.18077 8.43258 36007 ft 487 kts 25°
2026-05-04 17:10 47.33166 8.54538 36016 ft 486 kts 26°
2026-05-04 17:11 47.39192 8.59058 36016 ft 486 kts 26°
2026-05-04 17:12 47.48238 8.65862 36019 ft 486 kts 26°
2026-05-04 17:13 47.63301 8.77265 35995 ft 486 kts 26°
2026-05-04 17:14 47.75345 8.86440 35978 ft 486 kts 26°
2026-05-04 17:15 47.84364 8.93331 35970 ft 485 kts 26°
2026-05-04 17:16 47.96397 9.02590 35975 ft 485 kts 26°
2026-05-04 17:17 48.08326 9.11803 35981 ft 484 kts 26°
2026-05-04 17:17 48.17481 9.18089 35964 ft 481 kts 12°
2026-05-04 17:18 48.20756 9.18989 35975 ft 478 kts
2026-05-04 17:19 48.33995 9.21187 35957 ft 479 kts
2026-05-04 17:20 48.47270 9.23438 35956 ft 481 kts
2026-05-04 17:20 48.57251 9.25143 35964 ft 481 kts
2026-05-04 17:21 48.70570 9.27296 35978 ft 481 kts
2026-05-04 17:22 48.77244 9.28287 35978 ft 482 kts
2026-05-04 17:23 48.90573 9.30312 35975 ft 481 kts
2026-05-04 17:24 49.00570 9.31861 35990 ft 481 kts
2026-05-04 17:25 49.13896 9.33925 35987 ft 481 kts
2026-05-04 17:26 49.27218 9.35989 35996 ft 481 kts
2026-05-04 17:27 49.43888 9.38619 36001 ft 482 kts
2026-05-04 17:28 49.57244 9.40724 35995 ft 483 kts
2026-05-04 17:29 49.77282 9.43905 35996 ft 483 kts
2026-05-04 17:31 49.93941 9.46588 36005 ft 482 kts
2026-05-04 17:32 50.10586 9.49920 36001 ft 484 kts
2026-05-04 17:33 50.23763 9.54342 35994 ft 484 kts
2026-05-04 17:34 50.36925 9.58780 35994 ft 483 kts
2026-05-04 17:35 50.53356 9.64348 35999 ft 483 kts
2026-05-04 17:36 50.59926 9.66584 35989 ft 483 kts
2026-05-04 17:36 50.66480 9.68822 35962 ft 477 kts
2026-05-04 17:37 50.72911 9.71021 35972 ft 472 kts
2026-05-04 17:37 50.79321 9.73218 35972 ft 471 kts
2026-05-04 17:38 50.85725 9.75425 35968 ft 471 kts
2026-05-04 17:38 50.92126 9.77643 35970 ft 471 kts
2026-05-04 17:39 51.00647 9.80598 35977 ft 471 kts
2026-05-04 17:39 51.07056 9.82815 35980 ft 471 kts
2026-05-04 17:40 51.13468 9.85046 35949 ft 473 kts
2026-05-04 17:40 51.19934 9.87303 35956 ft 477 kts
2026-05-04 17:41 51.26333 9.90291 35955 ft 482 kts 16°
2026-05-04 17:41 51.32685 9.93812 35959 ft 484 kts 16°
2026-05-04 17:42 51.39050 9.97336 35977 ft 485 kts 16°
2026-05-04 17:42 51.45427 10.00877 35978 ft 485 kts 16°
2026-05-04 17:43 51.51807 10.04431 35986 ft 486 kts 16°
2026-05-04 17:43 51.58191 10.07995 35987 ft 486 kts 16°
2026-05-04 17:44 51.64578 10.11572 35999 ft 486 kts 16°
2026-05-04 17:44 51.70963 10.15158 35997 ft 486 kts 16°
2026-05-04 17:45 51.77352 10.18757 35995 ft 486 kts 16°
2026-05-04 17:45 51.83748 10.22360 35995 ft 487 kts 16°
2026-05-04 17:46 51.90135 10.25986 35999 ft 487 kts 16°
2026-05-04 17:46 51.96520 10.29632 35992 ft 487 kts 16°
2026-05-04 17:47 52.02910 10.33274 35986 ft 487 kts 16°
2026-05-04 17:47 52.09298 10.36918 35978 ft 486 kts 16°
2026-05-04 17:48 52.15686 10.40570 35971 ft 486 kts 16°
2026-05-04 17:48 52.22070 10.44248 35964 ft 486 kts 16°
2026-05-04 17:49 52.28445 10.47935 35960 ft 486 kts 16°
2026-05-04 17:49 52.34826 10.51634 35968 ft 486 kts 15°
2026-05-04 17:50 52.41198 10.55331 35967 ft 486 kts 15°
2026-05-04 17:50 52.47564 10.59042 35969 ft 486 kts 16°
2026-05-04 17:51 52.53929 10.62763 35988 ft 486 kts 15°
2026-05-04 17:51 52.60294 10.66487 35981 ft 486 kts 15°
2026-05-04 17:52 52.66660 10.70227 35981 ft 486 kts 15°
2026-05-04 17:52 52.73025 10.73977 35977 ft 486 kts 15°
2026-05-04 17:53 52.79392 10.77742 35984 ft 486 kts 15°
2026-05-04 17:53 52.85757 10.81524 35977 ft 486 kts 15°
2026-05-04 17:54 52.92123 10.85314 35974 ft 486 kts 15°
2026-05-04 17:54 52.98439 10.89081 35972 ft 486 kts 15°
2026-05-04 17:55 53.04805 10.92882 35974 ft 486 kts 15°
2026-05-04 17:55 53.11208 10.96734 35974 ft 486 kts 15°
2026-05-04 17:56 53.17572 11.00579 35972 ft 486 kts 15°
2026-05-04 17:56 53.23890 11.04392 35989 ft 486 kts 15°
2026-05-04 17:57 53.30248 11.08262 35983 ft 485 kts 15°
2026-05-04 17:57 53.36587 11.12133 35981 ft 485 kts 15°
2026-05-04 17:58 53.42929 11.15998 35981 ft 485 kts 15°
2026-05-04 17:58 53.49262 11.19869 36004 ft 484 kts 15°
2026-05-04 17:59 53.55582 11.23753 35999 ft 483 kts 15°
2026-05-04 18:00 53.65021 11.29585 35993 ft 481 kts 15°
2026-05-04 18:00 53.71298 11.33469 35675 ft 479 kts 15°
2026-05-04 18:00 53.74425 11.35409 35183 ft 478 kts 15°
2026-05-04 18:01 53.77550 11.37350 34695 ft 478 kts 14°
2026-05-04 18:01 53.80673 11.39291 34219 ft 479 kts 14°
2026-05-04 18:01 53.83804 11.41241 33703 ft 480 kts 14°
2026-05-04 18:02 53.90097 11.45185 32612 ft 485 kts 14°
2026-05-04 18:02 53.93277 11.47178 32080 ft 488 kts 14°
2026-05-04 18:02 53.96474 11.49178 31601 ft 492 kts 14°
2026-05-04 18:02 53.99694 11.51194 31086 ft 495 kts 14°
2026-05-04 18:03 54.02932 11.53232 30586 ft 494 kts 14°
2026-05-04 18:03 54.06143 11.55267 30092 ft 493 kts 14°
2026-05-04 18:03 54.09370 11.57312 29525 ft 495 kts 14°
2026-05-04 18:03 54.12589 11.59357 28969 ft 492 kts 14°
2026-05-04 18:04 54.15787 11.61391 28416 ft 488 kts 14°
2026-05-04 18:04 54.18951 11.63404 28026 ft 482 kts 14°
2026-05-04 18:04 54.25229 11.67403 27986 ft 482 kts 14°
2026-05-04 18:05 54.28373 11.69403 27984 ft 482 kts 14°
2026-05-04 18:05 54.31514 11.71403 27981 ft 482 kts 14°
2026-05-04 18:05 54.34563 11.73883 27862 ft 488 kts 24°
2026-05-04 18:05 54.37498 11.76759 27246 ft 484 kts 24°
2026-05-04 18:06 54.43251 11.82556 26181 ft 475 kts 25°
2026-05-04 18:06 54.46077 11.85438 25642 ft 470 kts 24°
2026-05-04 18:06 54.48876 11.88289 25099 ft 465 kts 24°
2026-05-04 18:07 54.51655 11.91110 24578 ft 461 kts 24°
2026-05-04 18:07 54.54405 11.93896 24076 ft 456 kts 24°
2026-05-04 18:07 54.57126 11.96650 23562 ft 452 kts 24°
2026-05-04 18:07 54.59821 11.99382 22986 ft 447 kts 24°
2026-05-04 18:08 54.62492 12.02093 22405 ft 443 kts 25°
2026-05-04 18:08 54.65130 12.04775 21847 ft 438 kts 25°
2026-05-04 18:08 54.67737 12.07429 21334 ft 433 kts 26°
2026-05-04 18:08 54.70312 12.10058 20846 ft 427 kts 26°
2026-05-04 18:09 54.75367 12.15235 19789 ft 418 kts 26°
2026-05-04 18:09 54.80319 12.20327 18753 ft 410 kts 27°
2026-05-04 18:10 54.82765 12.22842 18226 ft 407 kts 27°
2026-05-04 18:10 54.85190 12.25333 17688 ft 403 kts 27°
2026-05-04 18:10 54.87593 12.27804 17126 ft 400 kts 27°
2026-05-04 18:10 54.89979 12.30264 16590 ft 397 kts 27°
2026-05-04 18:11 54.92331 12.32699 16200 ft 387 kts 27°
2026-05-04 18:11 54.94599 12.35060 15711 ft 373 kts 27°
2026-05-04 18:11 54.96812 12.37363 15234 ft 369 kts 27°
2026-05-04 18:11 54.98982 12.39614 14833 ft 366 kts 26°
2026-05-04 18:12 55.01192 12.41905 14408 ft 363 kts 26°
2026-05-04 18:12 55.03356 12.44147 13988 ft 361 kts 26°
2026-05-04 18:12 55.05482 12.46356 13541 ft 359 kts 27°
2026-05-04 18:12 55.07622 12.48586 13145 ft 355 kts 27°
2026-05-04 18:13 55.09685 12.50748 12981 ft 334 kts 27°
2026-05-04 18:13 55.11624 12.52792 12484 ft 320 kts 26°
2026-05-04 18:13 55.15394 12.56751 11697 ft 313 kts 26°
2026-05-04 18:14 55.17254 12.58702 11356 ft 310 kts 26°
2026-05-04 18:14 55.19095 12.60636 11008 ft 308 kts 27°
2026-05-04 18:14 55.20924 12.62556 10668 ft 306 kts 27°
2026-05-04 18:15 55.24668 12.65787 9983 ft 295 kts 13°
2026-05-04 18:15 55.28560 12.67985 9232 ft 292 kts 13°
2026-05-04 18:15 55.30483 12.69083 8850 ft 290 kts 13°
2026-05-04 18:16 55.32395 12.70179 8478 ft 288 kts 14°
2026-05-04 18:16 55.34287 12.71265 8105 ft 286 kts 14°
2026-05-04 18:16 55.36175 12.72344 7734 ft 284 kts 14°
2026-05-04 18:17 55.39915 12.74472 7002 ft 281 kts 14°
2026-05-04 18:17 55.41763 12.75527 6639 ft 279 kts 14°
2026-05-04 18:17 55.45430 12.77634 5888 ft 275 kts 14°
2026-05-04 18:18 55.47246 12.78680 5512 ft 273 kts 14°
2026-05-04 18:18 55.49046 12.79718 5136 ft 271 kts 14°
2026-05-04 18:18 55.50832 12.80745 4779 ft 269 kts 15°
2026-05-04 18:18 55.52607 12.81766 4391 ft 267 kts 15°
2026-05-04 18:19 55.56107 12.83804 4004 ft 264 kts 17°
2026-05-04 18:19 55.57787 12.84935 4001 ft 250 kts 19°
2026-05-04 18:19 55.59351 12.86071 4003 ft 237 kts 19°
2026-05-04 18:20 55.60862 12.87200 4008 ft 235 kts 20°
2026-05-04 18:20 55.62358 12.88359 4033 ft 234 kts 20°
2026-05-04 18:20 55.63849 12.89526 4020 ft 234 kts 20°
2026-05-04 18:20 55.65333 12.90707 4008 ft 234 kts 20°
2026-05-04 18:21 55.66324 12.91449 4001 ft 232 kts 13°
2026-05-04 18:21 55.67882 12.91641 3818 ft 222 kts 350°
2026-05-04 18:21 55.69399 12.91204 3395 ft 221 kts 346°
2026-05-04 18:21 55.70832 12.90355 3011 ft 215 kts 324°
2026-05-04 18:22 55.71738 12.88349 2750 ft 206 kts 292°
2026-05-04 18:22 55.72156 12.86004 2630 ft 192 kts 284°
2026-05-04 18:22 55.72106 12.83760 2488 ft 178 kts 259°
2026-05-04 18:22 55.71755 12.81689 2173 ft 176 kts 249°
2026-05-04 18:23 55.71027 12.79959 2016 ft 177 kts 226°
2026-05-04 18:23 55.70092 12.78511 1964 ft 180 kts 225°
2026-05-04 18:23 55.69152 12.77042 1767 ft 180 kts 225°
2026-05-04 18:23 55.68232 12.75610 1549 ft 169 kts 225°
2026-05-04 18:24 55.67378 12.74281 1321 ft 160 kts 226°
2026-05-04 18:24 55.66551 12.72994 1107 ft 156 kts 225°
2026-05-04 18:24 55.65741 12.71734 893 ft 154 kts 225°
2026-05-04 18:24 55.64939 12.70486 681 ft 153 kts 225°
2026-05-04 18:25 55.64135 12.69237 473 ft 154 kts 224°
2026-05-04 18:25 55.63317 12.67999 254 ft 154 kts 224°
2026-05-04 18:25 55.62522 12.66751 93 ft 149 kts 225°
2026-05-04 18:25 55.61809 12.65621 19 ft 119 kts 221°
2026-05-04 18:26 55.61415 12.65009 18 ft 42 kts 223°
2026-05-04 18:26 55.61271 12.64700 18 ft 27 kts 244°
2026-05-04 18:26 55.61218 12.64441 19 ft 20 kts 250°
2026-05-04 18:26 55.61183 12.64219 17 ft 17 kts 281°
2026-05-04 18:27 55.61266 12.64118 17 ft 16 kts
2026-05-04 18:27 55.61361 12.64206 17 ft 15 kts 34°
2026-05-04 18:27 55.61446 12.64307 17 ft 14 kts 32°
2026-05-04 18:27 55.61529 12.64399 19 ft 14 kts 32°
2026-05-04 18:28 55.61611 12.64488 17 ft 14 kts 32°
2026-05-04 18:28 55.61732 12.64559 17 ft 22 kts 355°
2026-05-04 18:28 55.61830 12.64529 17 ft 3 kts 348°
2026-05-04 18:28 55.61847 12.64522 17 ft 2 kts 347°
2026-05-04 18:29 55.61860 12.64516 19 ft 2 kts 347°
2026-05-04 18:29 55.61869 12.64513 18 ft 1 kts 347°
2026-05-04 18:29 55.61881 12.64508 17 ft 5 kts 347°
2026-05-04 18:29 55.61952 12.64483 17 ft 16 kts 350°
2026-05-04 18:30 55.62196 12.64405 15 ft 18 kts 342°
2026-05-04 18:30 55.62284 12.64256 15 ft 19 kts 304°
2026-05-04 18:30 55.62360 12.64052 15 ft 20 kts 302°
2026-05-04 18:31 55.62442 12.63840 17 ft 20 kts 315°
2026-05-04 18:31 55.62507 12.63782 19 ft 5 kts 345°
2026-05-04 18:31 55.62530 12.63775 17 ft 2 kts 352°
2026-05-04 18:31 55.62542 12.63773 19 ft 1 kts 355°
2026-05-04 18:32 55.62564 12.63772 17 ft 5 kts
2026-05-04 18:32 55.62615 12.63788 17 ft 10 kts 17°
2026-05-04 18:32 55.62685 12.63860 18 ft 14 kts 33°
2026-05-04 18:32 55.62769 12.63952 19 ft 12 kts 21°
2026-05-04 18:33 55.62828 12.63914 17 ft 8 kts 297°
2026-05-04 18:33 55.62847 12.63858 17 ft 1 kts 345°
2026-05-04 18:33 55.62857 12.63861 17 ft 1 kts
2026-05-04 18:33 55.62863 12.63862 17 ft 1 kts
2026-05-04 18:34 55.62876 12.63866 17 ft 1 kts 10°
2026-05-04 18:34 55.62881 12.63868 17 ft 0 kts 10°